This is the latest recevied weather packets stored in our database for station/object AE5HO. If no packets are shown the sender has not sent any weather packets the latest 1 day(s).
| Time | Temp. | Humidity | Pressure | Rain* | Wind** | Luminosity | Snow |
|---|---|---|---|---|---|---|---|
| 1778045167 | 16.67° C | 80% | 1010.2 hPa | 0 mm | 0.89 m/s, 275° | 0 W/m² | - |
| 1778044865 | 16.67° C | 80% | 1010.2 hPa | 0 mm | 2.24 m/s, 43° | 0 W/m² | - |
| 1778044561 | 16.67° C | 79% | 1010.2 hPa | 0 mm | 0.45 m/s, 66° | 0 W/m² | - |
| 1778044258 | 16.67° C | 79% | 1010.3 hPa | 0 mm | 1.34 m/s, 159° | 0 W/m² | - |
| 1778043955 | 16.67° C | 79% | 1010.2 hPa | 0 mm | 0.89 m/s, 16° | 0 W/m² | - |
| 1778043653 | 16.67° C | 79% | 1010.4 hPa | 0 mm | 0.89 m/s, 180° | 0 W/m² | - |
| 1778043349 | 16.67° C | 79% | 1010 hPa | 0 mm | 1.79 m/s, 97° | 0 W/m² | - |
| 1778043046 | 17.22° C | 79% | 1010.3 hPa | 0 mm | 0 m/s | 0 W/m² | - |
| 1778042744 | 17.22° C | 79% | 1009.9 hPa | 0 mm | 1.34 m/s, 340° | 0 W/m² | - |
| 1778042440 | 17.22° C | 79% | 1010.3 hPa | 0 mm | 0 m/s | 0 W/m² | - |
| 1778042137 | 17.22° C | 78% | 1010.3 hPa | 0 mm | 1.34 m/s, 6° | 0 W/m² | - |
| 1778041836 | 17.78° C | 78% | 1010.2 hPa | 0 mm | 1.34 m/s, 3° | 0 W/m² | - |
| 1778041535 | 17.78° C | 79% | 1010.2 hPa | 0 mm | 0 m/s | 0 W/m² | - |
| 1778041232 | 17.78° C | 78% | 1010.1 hPa | 0 mm | 1.34 m/s, 233° | 0 W/m² | - |
| 1778040931 | 17.78° C | 79% | 1009.9 hPa | 0 mm | 1.34 m/s, 276° | 0 W/m² | - |
| 1778040627 | 17.78° C | 78% | 1009.6 hPa | 0 mm | 1.34 m/s, 71° | 0 W/m² | - |
| 1778040325 | 17.78° C | 79% | 1009.8 hPa | 0 mm | 0 m/s | 0 W/m² | - |
| 1778040020 | 18.33° C | 78% | 1009.8 hPa | 0 mm | 1.34 m/s, 90° | 0 W/m² | - |
| 1778039718 | 18.33° C | 78% | 1009.5 hPa | 0 mm | 0.45 m/s, 105° | 0 W/m² | - |
| 1778039415 | 18.33° C | 78% | 1009.5 hPa | 0 mm | 1.34 m/s, 82° | 0 W/m² | - |
| 1778039112 | 18.33° C | 78% | 1009.3 hPa | 0 mm | 0.89 m/s, 85° | 0 W/m² | - |
| 1778038809 | 18.89° C | 78% | 1009 hPa | 0 mm | 1.79 m/s, 90° | 0 W/m² | - |
| 1778038507 | 18.89° C | 78% | 1009.2 hPa | 0 mm | 0.89 m/s, 159° | 0 W/m² | - |
| 1778038203 | 18.89° C | 78% | 1009 hPa | 0 mm | 1.34 m/s, 84° | 0 W/m² | - |
| 1778037901 | 19.44° C | 77% | 1009 hPa | 0 mm | 0.89 m/s, 195° | 0 W/m² | - |
* Rain latest hour (hover to see other rain measurements)
** Current wind speed in m/s (hover to see current wind gust speed)